{"data":{"norad_id":69531,"epoch":"2026-09-20T04:57:02.236896Z","epoch_age_seconds":50874,"freshness":"FRESH","line1":"1 69531U 26133Z   26263.20627589  .00009101  00000+0  28017-3 0  9998","line2":"2 69531  53.1537 230.7322 0001375  94.7959 265.3201 15.34399915 16722","mean_motion":15.34399915,"eccentricity":0.0001375,"inclination_deg":53.1537,"raan_deg":230.7322,"arg_perigee_deg":94.7959,"mean_anomaly_deg":265.3201,"bstar":0.00028017,"rev_number":1672,"period_min":93.847763280149,"perigee_km":461.76287727726,"apogee_km":463.6441084128,"semimajor_km":6840.840492845,"source":"CELESTRAK","updated_at":"2026-09-20T09:00:44.240078Z"}}